FW6430 Weather Reports


time (UTC)temp
F
wind
direction
speed
knots
gust
knots
rain 1hr
in
rain 24hr
in
rain mn
in
humidity
%
barometer
mb
20260504050749 38 356 0.0 0.0 0.00 0.00 0.00 80 1011.9
20260504050243 37 356 0.0 0.0 0.00 0.00 0.00 79 1012.0
20260504045737 37 356 0.0 0.0 0.00 0.00 0.00 80 1012.0
20260504045231 37 356 0.0 0.0 0.00 0.00 0.00 81 1012.0
20260504044725 36 356 0.0 0.0 0.00 0.00 0.00 83 1012.0
20260504044219 36 356 0.0 0.0 0.00 0.00 0.00 83 1012.0
20260504043713 36 356 0.0 0.0 0.00 0.00 0.00 83 1012.0
20260504043207 36 356 0.0 0.0 0.00 0.00 0.00 83 1012.0
20260504042701 36 356 0.0 0.0 0.00 0.00 0.00 82 1012.0
20260504042155 36 356 0.0 0.0 0.00 0.00 0.00 82 1011.9
20260504041649 35 356 0.0 0.0 0.00 0.00 0.00 82 1011.9
20260504041143 36 356 0.0 0.0 0.00 0.00 0.00 82 1011.9
20260504040637 36 356 0.0 0.0 0.00 0.00 0.00 81 1011.7
20260504040131 36 356 0.0 0.0 0.00 0.00 0.00 81 1011.7
20260504035625 36 356 0.0 0.0 0.00 0.00 0.00 80 1011.7
20260504035119 36 356 0.0 0.0 0.00 0.00 0.00 79 1011.6
20260504034613 36 356 0.0 0.0 0.00 0.00 0.00 78 1011.6
20260504034107 36 356 0.0 0.0 0.00 0.00 0.00 78 1011.5
20260504033601 37 356 0.0 0.0 0.00 0.00 0.00 77 1011.5
20260504033055 37 356 0.0 0.0 0.00 0.00 0.00 76 1011.4
20260504032549 37 356 0.0 0.0 0.00 0.00 0.00 76 1011.4
20260504032043 37 356 0.0 0.0 0.00 0.00 0.00 75 1011.4
20260504031537 38 356 0.0 0.0 0.00 0.00 0.00 75 1011.4
20260504031031 38 356 0.0 0.0 0.00 0.00 0.00 74 1011.3
20260504030525 38 356 0.0 0.0 0.00 0.00 0.00 72 1011.3
20260504030019 38 356 0.0 0.0 0.00 0.00 0.00 72 1011.2
20260504025513 38 356 0.0 0.0 0.00 0.00 0.00 72 1011.2
20260504025007 39 356 0.0 0.0 0.00 0.00 0.00 71 1011.2
20260504024501 39 356 0.0 0.0 0.00 0.00 0.00 71 1011.2
20260504023955 39 356 0.0 0.0 0.00 0.00 0.00 71 1011.2
20260504023449 39 356 0.0 0.0 0.00 0.00 0.00 70 1011.2
20260504022943 40 356 0.0 0.0 0.00 0.00 0.00 70 1011.2
20260504022437 40 356 0.0 0.0 0.00 0.00 0.00 69 1011.2
20260504021931 40 356 0.0 0.0 0.00 0.00 0.00 69 1011.1
20260504021425 40 356 0.0 0.0 0.00 0.00 0.00 68 1011.1
20260504020919 41 356 0.0 0.0 0.00 0.00 0.00 68 1011.0
20260504020413 41 356 0.0 0.0 0.00 0.00 0.00 67 1011.0
20260504015907 41 356 0.0 0.0 0.00 0.00 0.00 67 1011.0
20260504015401 41 356 0.0 0.0 0.00 0.00 0.00 66 1011.0
20260504014855 42 356 0.0 0.0 0.00 0.00 0.00 65 1011.0
20260504014349 42 356 0.0 0.0 0.00 0.00 0.00 64 1010.9
20260504013843 43 356 0.0 0.0 0.00 0.00 0.00 64 1010.8
20260504013337 43 356 0.0 0.0 0.00 0.00 0.00 63 1010.8
20260504012831 43 356 0.0 0.0 0.00 0.00 0.00 63 1010.7
20260504012325 44 356 0.0 0.0 0.00 0.00 0.00 62 1010.7
20260504011819 44 356 0.0 0.0 0.00 0.00 0.00 61 1010.6
20260504011313 44 356 0.0 0.0 0.00 0.00 0.00 59 1010.5
20260504010807 45 356 0.0 0.0 0.00 0.00 0.00 57 1010.4
20260504010301 45 356 0.0 0.0 0.00 0.00 0.00 57 1010.3
20260504005755 45 356 0.0 0.0 0.00 0.00 0.00 56 1010.3
20260504005249 46 356 0.0 0.0 0.00 0.00 0.00 55 1010.2
20260504004743 46 356 0.0 0.0 0.00 0.00 0.00 55 1010.1
20260504004237 46 356 0.0 0.0 0.00 0.00 0.00 53 1010.1
20260504003731 46 356 0.0 0.0 0.00 0.00 0.00 53 1010.0
20260504003225 47 356 0.0 0.0 0.00 0.00 0.00 52 1009.9
20260504002719 47 356 0.0 0.0 0.00 0.00 0.00 51 1009.9
20260504002213 48 356 0.0 0.0 0.00 0.00 0.00 51 1009.9
20260504001707 48 356 0.0 0.0 0.00 0.00 0.00 50 1009.8
20260504001201 48 356 0.0 0.0 0.00 0.00 0.00 48 1009.7
20260504000655 49 356 0.0 0.0 0.00 0.00 0.00 49 1009.6
20260504000149 49 356 0.0 0.0 0.00 0.00 0.00 48 1009.5
20260503235643 50 356 0.0 0.0 0.00 0.00 0.00 48 1009.5
20260503235137 50 356 0.0 0.0 0.00 0.00 0.00 46 1009.5
20260503234631 50 356 0.0 0.0 0.00 0.00 0.00 46 1009.4
20260503234125 51 356 0.0 0.0 0.00 0.00 0.00 45 1009.3
20260503233619 51 356 0.0 0.0 0.00 0.00 0.00 44 1009.3
20260503233113 51 356 0.0 0.0 0.00 0.00 0.00 45 1009.2
20260503232607 51 356 0.0 0.0 0.00 0.00 0.00 44 1009.2
20260503232101 52 356 0.0 0.0 0.00 0.00 0.00 45 1009.2
20260503231555 52 356 0.0 0.0 0.00 0.00 0.00 44 1009.1
20260503231049 52 41 0.0 0.0 0.00 0.00 0.00 44 1009.0
20260503230543 52 163 0.0 0.0 0.00 0.00 0.00 41 1009.0
20260503230037 53 156 0.0 0.0 0.00 0.00 0.00 41 1008.9
20260503225531 53 216 0.0 0.0 0.00 0.00 0.00 40 1008.8
20260503225025 53 180 0.9 0.0 0.00 0.00 0.00 39 1008.7
20260503224519 53 143 0.0 0.0 0.00 0.00 0.00 41 1008.6
20260503224013 53 221 0.9 0.0 0.00 0.00 0.00 40 1008.5
20260503223507 53 108 0.0 0.0 0.00 0.00 0.00 40 1008.5
20260503223001 53 0 0.0 0.0 0.00 0.00 0.00 43 1008.5
20260503222455 53 299 0.0 0.0 0.00 0.00 0.00 41 1008.4
20260503221949 53 179 0.0 0.0 0.00 0.00 0.00 40 1008.4
20260503221443 53 190 0.9 0.0 0.00 0.00 0.00 41 1008.3
20260503220937 53 15 0.0 0.0 0.00 0.00 0.00 40 1008.2
20260503220431 53 129 0.0 0.0 0.00 0.00 0.00 44 1008.2
20260503215925 54 95 0.0 0.0 0.00 0.00 0.00 42 1008.1
20260503215419 54 235 0.9 0.0 0.00 0.00 0.00 39 1008.0
20260503214913 54 106 0.0 0.0 0.00 0.00 0.00 40 1008.0
20260503214407 54 179 0.0 0.0 0.00 0.00 0.00 40 1007.9
20260503213901 54 93 0.9 0.0 0.00 0.00 0.00 39 1007.8
20260503213355 54 61 0.9 0.0 0.00 0.00 0.00 42 1007.7
20260503212849 54 145 0.0 0.0 0.00 0.00 0.00 42 1007.7
20260503212343 54 80 0.0 0.0 0.00 0.00 0.00 42 1007.5
20260503211837 54 187 0.0 0.0 0.00 0.00 0.00 42 1007.5
20260503211331 54 274 0.0 0.0 0.00 0.00 0.00 42 1007.4
20260503210825 55 47 0.0 0.0 0.00 0.00 0.00 42 1007.3
20260503210319 55 83 0.0 0.0 0.00 0.00 0.00 41 1007.2
20260503205813 55 75 0.0 0.0 0.00 0.00 0.00 42 1007.1
20260503205307 55 209 0.0 0.0 0.00 0.00 0.00 39 1007.0
20260503204801 55 123 0.9 0.0 0.00 0.00 0.00 39 1006.9
20260503204255 55 26 0.0 0.0 0.00 0.00 0.00 42 1006.7
20260503203749 55 178 1.7 0.0 0.00 0.00 0.00 38 1006.9
20260503203243 55 81 0.0 0.0 0.00 0.00 0.00 42 1006.8
20260503202737 55 148 0.0 0.0 0.00 0.00 0.00 42 1006.8
20260503202231 55 234 1.7 0.0 0.00 0.00 0.00 40 1006.8
20260503201725 55 236 1.7 0.0 0.00 0.00 0.00 41 1006.7
20260503201219 55 172 0.0 0.0 0.00 0.00 0.00 44 1006.8
20260503200713 55 352 0.0 0.0 0.00 0.00 0.00 42 1006.7
20260503200207 55 162 0.0 0.0 0.00 0.00 0.00 45 1006.8
20260503195701 55 1 0.9 0.0 0.00 0.00 0.00 45 1006.7
20260503195155 55 241 0.9 0.0 0.00 0.00 0.00 43 1006.7
20260503194649 55 120 0.9 0.0 0.00 0.00 0.00 41 1006.7
20260503194143 55 132 0.9 0.0 0.00 0.00 0.00 42 1006.7
20260503193637 54 208 0.0 0.0 0.00 0.00 0.00 43 1006.8
20260503193131 54 169 0.0 0.0 0.00 0.00 0.00 44 1006.9
20260503192625 54 195 0.9 0.0 0.00 0.00 0.00 42 1006.8
20260503192119 54 159 0.9 0.0 0.00 0.00 0.00 43 1006.8
20260503191613 54 130 0.0 0.0 0.00 0.00 0.00 46 1006.7
20260503191107 54 342 0.0 0.0 0.00 0.00 0.00 43 1006.8
20260503190601 54 171 0.9 0.0 0.00 0.00 0.00 46 1006.8
20260503190055 53 98 0.0 0.0 0.00 0.00 0.00 48 1006.9
20260503185549 53 32 0.0 0.0 0.00 0.00 0.00 47 1007.0
20260503185043 53 9 0.0 0.0 0.00 0.00 0.00 47 1006.9
20260503184537 53 12 0.0 0.0 0.00 0.00 0.00 47 1006.9
20260503184031 53 28 0.0 0.0 0.00 0.00 0.00 46 1007.0
20260503183525 54 57 0.0 0.0 0.00 0.00 0.00 49 1006.9
20260503183019 54 57 0.0 0.0 0.00 0.00 0.00 47 1006.9
20260503182513 54 19 0.9 0.0 0.00 0.00 0.00 47 1006.7
20260503182007 54 21 0.9 0.0 0.00 0.00 0.00 49 1006.8
20260503181501 53 13 0.9 0.0 0.00 0.00 0.00 48 1006.8
20260503180955 53 355 0.9 0.0 0.00 0.00 0.00 52 1006.9
20260503180449 52 259 0.9 0.0 0.00 0.00 0.00 50 1006.9
20260503175943 52 102 0.0 0.0 0.00 0.00 0.00 53 1007.1
20260503175437 52 200 0.9 0.0 0.00 0.00 0.00 52 1007.1
20260503174931 52 245 0.0 0.0 0.00 0.00 0.00 53 1007.0
20260503174425 52 223 0.9 0.0 0.00 0.00 0.00 50 1007.0
20260503173919 52 249 0.0 0.0 0.00 0.00 0.00 52 1007.0
20260503173413 53 252 0.0 0.0 0.00 0.00 0.00 52 1006.9
20260503172907 53 109 0.9 0.0 0.00 0.00 0.00 51 1006.9
20260503172401 53 142 0.9 0.0 0.00 0.00 0.00 50 1006.9
20260503171855 53 188 0.0 0.0 0.00 0.00 0.00 53 1006.9
20260503171349 52 46 0.0 0.0 0.00 0.00 0.00 50 1006.9
20260503170843 52 8 1.7 0.0 0.00 0.00 0.00 53 1007.0
20260503170337 52 16 0.9 0.0 0.00 0.00 0.00 55 1007.0
20260503150619 46 43 0.9 0.0 0.00 0.00 0.00 85 1007.3
20260503150113 46 0 0.0 0.0 0.00 0.00 0.00 88 1007.2
20260503131407 48 338 0.0 0.0 0.00 0.00 0.00 73 1007.2
20260503130901 47 321 0.0 0.0 0.00 0.00 0.00 74 1007.2
20260503130355 47 349 0.0 0.0 0.00 0.00 0.00 74 1007.2
20260503110637 43 191 0.0 0.0 0.00 0.00 0.00 81 1008.1
20260503110131 43 191 0.0 0.0 0.00 0.00 0.00 82 1008.2
20260503090414 44 188 0.0 0.0 0.00 0.00 0.00 79 1008.3
20260503081314 45 188 0.0 0.0 0.00 0.00 0.00 78 1008.5
20260503080808 45 188 0.0 0.0 0.00 0.00 0.00 79 1008.7
20260503080302 45 188 0.0 0.0 0.00 0.00 0.00 79 1008.7
20260503072720 45 188 0.0 0.0 0.00 0.00 0.00 79 1009.0
20260503072214 46 188 0.0 0.0 0.00 0.00 0.00 78 1009.3
20260503071708 46 188 0.0 0.0 0.00 0.00 0.00 78 1009.2
20260503071202 46 188 0.0 0.0 0.00 0.00 0.00 77 1009.1
20260503070656 46 188 0.0 0.0 0.00 0.00 0.00 77 1009.4
20260503070150 46 188 0.0 0.0 0.00 0.00 0.00 76 1009.4
20260503055026 47 188 0.0 0.0 0.00 0.00 0.00 75 1010.1
20260503054520 47 188 0.0 0.0 0.00 0.00 0.00 76 1010.4
20260503054014 47 188 0.0 0.0 0.00 0.00 0.00 77 1010.4
20260503053508 47 188 0.0 0.0 0.00 0.00 0.00 78 1010.4
20260503053002 47 188 0.0 0.0 0.00 0.00 0.00 78 1010.4